THY2820 LTFM-LTCG

Flight info

Callsign THY2820
Flight time 1h 15m
Altitude 35000
Route EKAWE UT641 ABSAX UN743 GAKSU UT310 SIN UN644 KARDE UL851 TOLUN
Aircraft A321/M-SDE3FGHIRWY/LB1

Departure

Time 2026-05-07 09:04
Airport İstanbul Airport (LTFM)

Arrival

Time 2026-05-07 10:19
Airport Trabzon International Airport (LTCG)
Time Latitude Longitude Altitude Speed Heading
2026-05-07 07:50 41.26404 28.73568 330 ft 0 kts 74°
2026-05-07 08:53 41.26402 28.73559 334 ft 4 kts 73°
2026-05-07 08:54 41.26394 28.73525 331 ft 4 kts 71°
2026-05-07 08:54 41.26385 28.73491 331 ft 3 kts 70°
2026-05-07 08:54 41.26376 28.73466 329 ft 4 kts 33°
2026-05-07 08:54 41.26355 28.73463 331 ft 4 kts 338°
2026-05-07 08:55 41.26343 28.73470 329 ft 4 kts 342°
2026-05-07 08:55 41.26369 28.73459 329 ft 4 kts 342°
2026-05-07 08:55 41.26395 28.73447 333 ft 4 kts 341°
2026-05-07 08:55 41.26408 28.73441 330 ft 0 kts 340°
2026-05-07 08:59 41.26413 28.73439 332 ft 3 kts 340°
2026-05-07 08:59 41.26471 28.73411 333 ft 12 kts 340°
2026-05-07 09:00 41.26552 28.73373 332 ft 13 kts 341°
2026-05-07 09:00 41.26599 28.73283 332 ft 13 kts 274°
2026-05-07 09:00 41.26599 28.73159 334 ft 14 kts 269°
2026-05-07 09:00 41.26598 28.73033 332 ft 10 kts 269°
2026-05-07 09:01 41.26597 28.72972 331 ft 7 kts 269°
2026-05-07 09:01 41.26596 28.72903 331 ft 8 kts 269°
2026-05-07 09:01 41.26595 28.72823 332 ft 9 kts 269°
2026-05-07 09:01 41.26594 28.72734 334 ft 10 kts 269°
2026-05-07 09:02 41.26592 28.72636 334 ft 11 kts 269°
2026-05-07 09:02 41.26591 28.72539 334 ft 6 kts 270°
2026-05-07 09:02 41.26621 28.72516 333 ft 6 kts
2026-05-07 09:02 41.26631 28.72516 332 ft 0 kts
2026-05-07 09:03 41.26687 28.72517 334 ft 35 kts 360°
2026-05-07 09:03 41.27180 28.72506 333 ft 104 kts 359°
2026-05-07 09:03 41.28103 28.72486 333 ft 158 kts 359°
2026-05-07 09:04 41.29294 28.72447 677 ft 173 kts 360°
2026-05-07 09:04 41.30506 28.72410 1319 ft 176 kts 359°
2026-05-07 09:04 41.31756 28.72399 1881 ft 186 kts 359°
2026-05-07 09:04 41.33112 28.72392 2385 ft 201 kts 357°
2026-05-07 09:05 41.34534 28.72382 2810 ft 209 kts 357°
2026-05-07 09:05 41.36036 28.72367 3130 ft 223 kts 356°
2026-05-07 09:05 41.37628 28.72536 3394 ft 246 kts 13°
2026-05-07 09:05 41.39146 28.73798 3793 ft 267 kts 48°
2026-05-07 09:06 41.40079 28.75935 4401 ft 277 kts 64°
2026-05-07 09:06 41.40798 28.78348 5102 ft 281 kts 67°
2026-05-07 09:06 41.41518 28.80771 5871 ft 283 kts 65°
2026-05-07 09:06 41.42284 28.83206 6603 ft 286 kts 64°
2026-05-07 09:07 41.43089 28.85640 7293 ft 289 kts 63°
2026-05-07 09:07 41.43923 28.88081 8012 ft 290 kts 62°
2026-05-07 09:07 41.44768 28.90528 8754 ft 291 kts 62°
2026-05-07 09:07 41.45615 28.92987 9499 ft 293 kts 62°
2026-05-07 09:08 41.46462 28.95461 10219 ft 295 kts 62°
2026-05-07 09:08 41.47343 28.98035 10425 ft 316 kts 63°
2026-05-07 09:08 41.48286 29.00798 10556 ft 338 kts 63°
2026-05-07 09:08 41.49287 29.03740 10675 ft 358 kts 63°
2026-05-07 09:09 41.50343 29.06850 10801 ft 377 kts 63°
2026-05-07 09:09 41.51445 29.10110 10955 ft 394 kts 63°
2026-05-07 09:09 41.52577 29.13479 11422 ft 401 kts 64°
2026-05-07 09:09 41.53718 29.16889 12012 ft 404 kts 64°
2026-05-07 09:10 41.54867 29.20324 12625 ft 407 kts 64°
2026-05-07 09:10 41.56026 29.23781 13269 ft 409 kts 64°
2026-05-07 09:10 41.57198 29.27258 13876 ft 412 kts 64°
2026-05-07 09:10 41.58379 29.30760 14429 ft 415 kts 63°
2026-05-07 09:11 41.59564 29.34292 14951 ft 418 kts 63°
2026-05-07 09:11 41.60755 29.37851 15456 ft 421 kts 63°
2026-05-07 09:11 41.61937 29.41390 15943 ft 424 kts 63°
2026-05-07 09:11 41.63143 29.45002 16433 ft 427 kts 63°
2026-05-07 09:12 41.64357 29.48641 16912 ft 430 kts 63°
2026-05-07 09:12 41.65578 29.52309 17367 ft 433 kts 63°
2026-05-07 09:12 41.66807 29.56005 17824 ft 436 kts 63°
2026-05-07 09:12 41.68044 29.59726 18272 ft 439 kts 63°
2026-05-07 09:13 41.69286 29.63473 18677 ft 442 kts 63°
2026-05-07 09:13 41.70531 29.67238 19061 ft 445 kts 63°
2026-05-07 09:13 41.71781 29.71035 19445 ft 447 kts 63°
2026-05-07 09:13 41.73038 29.74854 19833 ft 449 kts 63°
2026-05-07 09:14 41.74299 29.78693 20251 ft 451 kts 63°
2026-05-07 09:14 41.75566 29.82549 20652 ft 453 kts 63°
2026-05-07 09:14 41.76839 29.86424 21038 ft 456 kts 63°
2026-05-07 09:14 41.78118 29.90320 21406 ft 458 kts 62°
2026-05-07 09:15 41.79406 29.94234 21772 ft 460 kts 62°
2026-05-07 09:15 41.80700 29.98167 22127 ft 462 kts 62°
2026-05-07 09:15 41.81996 30.02123 22476 ft 465 kts 62°
2026-05-07 09:15 41.83297 30.06101 22824 ft 467 kts 62°
2026-05-07 09:16 41.84601 30.10101 23214 ft 469 kts 62°
2026-05-07 09:16 41.85907 30.14117 23537 ft 472 kts 62°
2026-05-07 09:16 41.87221 30.18169 23847 ft 475 kts 62°
2026-05-07 09:16 41.88542 30.22241 24080 ft 477 kts 62°
2026-05-07 09:17 41.89864 30.26320 24159 ft 476 kts 62°
2026-05-07 09:17 41.91187 30.30404 24383 ft 477 kts 62°
2026-05-07 09:17 41.92505 30.34488 24789 ft 476 kts 62°
2026-05-07 09:17 41.93819 30.38566 25175 ft 475 kts 62°
2026-05-07 09:18 41.95130 30.42643 25562 ft 475 kts 62°
2026-05-07 09:18 41.96420 30.46666 25933 ft 475 kts 62°
2026-05-07 09:18 41.97727 30.50741 26316 ft 475 kts 62°
2026-05-07 09:18 41.98893 30.54903 26696 ft 479 kts 69°
2026-05-07 09:19 41.99604 30.59295 27072 ft 484 kts 78°
2026-05-07 09:19 41.99836 30.63829 27438 ft 489 kts 85°
2026-05-07 09:19 41.99863 30.68396 27823 ft 488 kts 85°
2026-05-07 09:19 41.99890 30.72942 28273 ft 486 kts 85°
2026-05-07 09:20 41.99918 30.77483 28689 ft 485 kts 85°
2026-05-07 09:20 41.99947 30.82016 29082 ft 485 kts 85°
2026-05-07 09:20 41.99978 30.86545 29475 ft 484 kts 85°
2026-05-07 09:20 42.00005 30.91065 29916 ft 483 kts 85°
2026-05-07 09:21 42.00024 30.95570 30326 ft 481 kts 85°
2026-05-07 09:21 42.00042 30.98550 30548 ft 480 kts 83°
2026-05-07 09:21 42.00357 31.02983 30870 ft 473 kts 75°
2026-05-07 09:21 42.01110 31.07247 31182 ft 468 kts 68°
2026-05-07 09:22 42.02022 31.11442 31528 ft 467 kts 69°
2026-05-07 09:22 42.03211 31.16996 31979 ft 465 kts 69°
2026-05-07 09:22 42.03809 31.19815 32218 ft 465 kts 69°
2026-05-07 09:22 42.04694 31.23990 32552 ft 464 kts 69°
2026-05-07 09:23 42.05577 31.28161 32865 ft 463 kts 69°
2026-05-07 09:23 42.06741 31.33675 33300 ft 462 kts 69°
2026-05-07 09:23 42.07334 31.36490 33494 ft 462 kts 69°
2026-05-07 09:23 42.08209 31.40650 33793 ft 462 kts 69°
2026-05-07 09:24 42.09083 31.44808 34093 ft 461 kts 69°
2026-05-07 09:24 42.09954 31.48963 34357 ft 461 kts 69°
2026-05-07 09:24 42.10811 31.53060 34600 ft 460 kts 69°
2026-05-07 09:24 42.11679 31.57208 34841 ft 460 kts 69°
2026-05-07 09:25 42.12548 31.61354 35067 ft 460 kts 69°
2026-05-07 09:25 42.13418 31.65506 35170 ft 462 kts 70°
2026-05-07 09:25 42.15154 31.73881 35166 ft 465 kts 70°
2026-05-07 09:26 42.16888 31.82280 35171 ft 465 kts 70°
2026-05-07 09:26 42.18625 31.90672 35170 ft 465 kts 70°
2026-05-07 09:27 42.20353 31.99081 35166 ft 465 kts 70°
2026-05-07 09:28 42.22919 32.11720 35191 ft 466 kts 71°
2026-05-07 09:28 42.24623 32.20152 35200 ft 465 kts 71°
2026-05-07 09:29 42.26443 32.28521 35194 ft 464 kts 69°
2026-05-07 09:29 42.28406 32.36812 35191 ft 463 kts 68°
2026-05-07 09:30 42.30358 32.45106 35183 ft 463 kts 69°
2026-05-07 09:30 42.32225 32.53380 35195 ft 464 kts 72°
2026-05-07 09:31 42.32831 32.62101 35192 ft 472 kts 91°
2026-05-07 09:31 42.31926 32.70924 35185 ft 474 kts 95°
2026-05-07 09:32 42.30943 32.79740 35179 ft 475 kts 95°
2026-05-07 09:32 42.29949 32.88556 35185 ft 475 kts 95°
2026-05-07 09:33 42.28935 32.97369 35183 ft 475 kts 96°
2026-05-07 09:33 42.27909 33.06182 35205 ft 475 kts 96°
2026-05-07 09:34 42.26883 33.14991 35201 ft 475 kts 96°
2026-05-07 09:34 42.25856 33.23782 35188 ft 474 kts 96°
2026-05-07 09:35 42.24821 33.32576 35205 ft 474 kts 96°
2026-05-07 09:35 42.23775 33.41362 35197 ft 474 kts 96°
2026-05-07 09:36 42.22721 33.50148 35206 ft 473 kts 95°
2026-05-07 09:36 42.21667 33.58912 35199 ft 473 kts 96°
2026-05-07 09:37 42.20608 33.67657 35191 ft 473 kts 96°
2026-05-07 09:37 42.19544 33.76349 35192 ft 473 kts 96°
2026-05-07 09:38 42.18469 33.85094 35198 ft 473 kts 95°
2026-05-07 09:38 42.17388 33.93832 35194 ft 472 kts 95°
2026-05-07 09:39 42.16301 34.02567 35188 ft 472 kts 95°
2026-05-07 09:39 42.15208 34.11287 35187 ft 472 kts 96°
2026-05-07 09:40 42.14104 34.20014 35199 ft 472 kts 95°
2026-05-07 09:40 42.12996 34.28738 35193 ft 472 kts 95°
2026-05-07 09:41 42.11885 34.37460 35197 ft 472 kts 95°
2026-05-07 09:41 42.10763 34.46175 35192 ft 472 kts 96°
2026-05-07 09:42 42.09581 34.54819 35201 ft 473 kts 97°
2026-05-07 09:42 42.08351 34.63512 35198 ft 473 kts 97°
2026-05-07 09:43 42.07131 34.72195 35197 ft 472 kts 96°
2026-05-07 09:43 42.05917 34.80885 35195 ft 472 kts 96°
2026-05-07 09:44 42.04704 34.89573 35202 ft 472 kts 97°
2026-05-07 09:44 42.03537 34.98268 35207 ft 472 kts 97°
2026-05-07 09:45 42.02398 35.06964 35207 ft 471 kts 94°
2026-05-07 09:45 42.01894 35.15708 35204 ft 469 kts 90°
2026-05-07 09:46 42.01439 35.24393 35230 ft 468 kts 92°
2026-05-07 09:46 42.00957 35.33124 35219 ft 468 kts 92°
2026-05-07 09:47 42.00471 35.41843 35217 ft 467 kts 92°
2026-05-07 09:47 41.99988 35.50549 35216 ft 467 kts 92°
2026-05-07 09:48 41.99511 35.59266 35218 ft 467 kts 92°
2026-05-07 09:48 41.99021 35.67977 35220 ft 467 kts 92°
2026-05-07 09:49 41.98517 35.76682 35216 ft 467 kts 92°
2026-05-07 09:49 41.98002 35.85378 35214 ft 466 kts 92°
2026-05-07 09:50 41.97488 35.94066 35230 ft 466 kts 92°
2026-05-07 09:50 41.96970 36.02744 35232 ft 465 kts 92°
2026-05-07 09:51 41.96448 36.11396 35230 ft 465 kts 92°
2026-05-07 09:51 41.95916 36.20048 35227 ft 465 kts 93°
2026-05-07 09:52 41.95382 36.28698 35225 ft 465 kts 93°
2026-05-07 09:52 41.94842 36.37346 35226 ft 464 kts 93°
2026-05-07 09:53 41.94298 36.45931 35225 ft 464 kts 93°
2026-05-07 09:53 41.93743 36.54566 35223 ft 464 kts 93°
2026-05-07 09:54 41.93176 36.63182 35222 ft 463 kts 93°
2026-05-07 09:54 41.92598 36.71857 35232 ft 463 kts 93°
2026-05-07 09:55 41.92035 36.80404 35236 ft 462 kts 93°
2026-05-07 09:55 41.91456 36.88997 35230 ft 462 kts 93°
2026-05-07 09:56 41.90864 36.97588 35230 ft 462 kts 93°
2026-05-07 09:56 41.89800 37.06089 35225 ft 464 kts 106°
2026-05-07 09:57 41.87363 37.14135 35233 ft 466 kts 111°
2026-05-07 09:57 41.84845 37.22139 35226 ft 466 kts 111°
2026-05-07 09:58 41.82322 37.30160 35221 ft 467 kts 111°
2026-05-07 09:58 41.79789 37.38179 35225 ft 467 kts 111°
2026-05-07 09:59 41.77258 37.46139 35232 ft 468 kts 111°
2026-05-07 09:59 41.74699 37.54153 35224 ft 468 kts 111°
2026-05-07 10:00 41.72137 37.62169 35222 ft 468 kts 111°
2026-05-07 10:00 41.69579 37.70176 34960 ft 468 kts 111°
2026-05-07 10:00 41.68299 37.74172 34740 ft 467 kts 111°
2026-05-07 10:01 41.67021 37.78163 34211 ft 468 kts 111°
2026-05-07 10:01 41.65731 37.82179 33306 ft 471 kts 111°
2026-05-07 10:01 41.64436 37.86195 32504 ft 470 kts 111°
2026-05-07 10:01 41.63136 37.90215 31652 ft 471 kts 111°
2026-05-07 10:02 41.61834 37.94241 30790 ft 473 kts 111°
2026-05-07 10:02 41.60532 37.98268 29796 ft 474 kts 111°
2026-05-07 10:02 41.59225 38.02314 28771 ft 475 kts 111°
2026-05-07 10:02 41.57910 38.06378 27746 ft 477 kts 111°
2026-05-07 10:03 41.56588 38.10444 26690 ft 478 kts 111°
2026-05-07 10:03 41.55258 38.14521 25569 ft 482 kts 111°
2026-05-07 10:03 41.53912 38.18642 24537 ft 484 kts 111°
2026-05-07 10:03 41.52566 38.22763 23544 ft 484 kts 111°
2026-05-07 10:04 41.51230 38.26856 22749 ft 478 kts 111°
2026-05-07 10:04 41.49904 38.30908 21971 ft 473 kts 112°
2026-05-07 10:04 41.48593 38.34904 21059 ft 469 kts 112°
2026-05-07 10:04 41.47310 38.38799 20271 ft 464 kts 112°
2026-05-07 10:05 41.46021 38.42710 19565 ft 457 kts 112°
2026-05-07 10:05 41.44743 38.46587 18814 ft 453 kts 113°
2026-05-07 10:05 41.43484 38.50398 18091 ft 447 kts 113°
2026-05-07 10:05 41.42238 38.54168 17246 ft 442 kts 112°
2026-05-07 10:06 41.41002 38.57909 16344 ft 440 kts 113°
2026-05-07 10:06 41.39781 38.61597 15636 ft 433 kts 113°
2026-05-07 10:06 41.38570 38.65246 14956 ft 427 kts 113°
2026-05-07 10:06 41.37370 38.68860 14198 ft 425 kts 113°
2026-05-07 10:07 41.36180 38.72444 13461 ft 421 kts 113°
2026-05-07 10:07 41.35002 38.75983 12806 ft 416 kts 113°
2026-05-07 10:07 41.33835 38.79482 12183 ft 411 kts 113°
2026-05-07 10:07 41.32690 38.82942 11590 ft 405 kts 113°
2026-05-07 10:08 41.31589 38.86305 11443 ft 387 kts 112°
2026-05-07 10:08 41.30544 38.89516 11314 ft 369 kts 113°
2026-05-07 10:08 41.29549 38.92579 11189 ft 353 kts 112°
2026-05-07 10:08 41.28596 38.95505 11054 ft 337 kts 112°
2026-05-07 10:09 41.27681 38.98309 10940 ft 324 kts 112°
2026-05-07 10:09 41.26799 39.01000 10803 ft 311 kts 113°
2026-05-07 10:09 41.25950 39.03583 10685 ft 300 kts 113°
2026-05-07 10:09 41.25122 39.06105 10468 ft 293 kts 113°
2026-05-07 10:10 41.24311 39.08567 10394 ft 292 kts 113°
2026-05-07 10:10 41.23504 39.11009 10215 ft 292 kts 113°
2026-05-07 10:10 41.22690 39.13468 9895 ft 292 kts 113°
2026-05-07 10:10 41.21868 39.15951 9429 ft 294 kts 113°
2026-05-07 10:11 41.20910 39.18339 9045 ft 292 kts 121°
2026-05-07 10:11 41.19854 39.20635 8643 ft 292 kts 121°
2026-05-07 10:11 41.18807 39.22922 8306 ft 289 kts 121°
2026-05-07 10:11 41.17763 39.25205 7893 ft 289 kts 121°
2026-05-07 10:12 41.16722 39.27475 7536 ft 288 kts 121°
2026-05-07 10:12 41.15681 39.29737 7167 ft 287 kts 121°
2026-05-07 10:12 41.14647 39.31989 6799 ft 286 kts 121°
2026-05-07 10:12 41.13620 39.34225 6488 ft 282 kts 121°
2026-05-07 10:13 41.12603 39.36465 6090 ft 282 kts 118°
2026-05-07 10:13 41.11796 39.38789 5644 ft 284 kts 112°
2026-05-07 10:13 41.11002 39.41168 5383 ft 278 kts 113°
2026-05-07 10:13 41.10222 39.43498 5075 ft 276 kts 112°
2026-05-07 10:14 41.09446 39.45813 4736 ft 274 kts 112°
2026-05-07 10:14 41.08664 39.48147 4123 ft 281 kts 113°
2026-05-07 10:14 41.07954 39.50467 3856 ft 260 kts 106°
2026-05-07 10:14 41.07512 39.52677 3735 ft 240 kts 105°
2026-05-07 10:15 41.06982 39.54722 3651 ft 227 kts 110°
2026-05-07 10:15 41.06406 39.56616 3533 ft 218 kts 110°
2026-05-07 10:15 41.05833 39.58471 3444 ft 218 kts 111°
2026-05-07 10:15 41.05274 39.60282 3192 ft 203 kts 110°
2026-05-07 10:16 41.04763 39.61941 2904 ft 187 kts 111°
2026-05-07 10:16 41.04292 39.63472 2654 ft 171 kts 111°
2026-05-07 10:16 41.03854 39.64893 2404 ft 162 kts 111°
2026-05-07 10:16 41.03448 39.66212 2163 ft 150 kts 111°
2026-05-07 10:17 41.03189 39.67052 2021 ft 146 kts 111°
2026-05-07 10:17 41.02682 39.68697 1736 ft 144 kts 111°
2026-05-07 10:17 41.02431 39.69510 1575 ft 143 kts 111°
2026-05-07 10:17 41.02052 39.70724 1389 ft 143 kts 111°
2026-05-07 10:18 41.01686 39.71947 1130 ft 142 kts 111°
2026-05-07 10:18 41.01195 39.73556 854 ft 141 kts 110°
2026-05-07 10:18 41.00822 39.74760 636 ft 141 kts 112°
2026-05-07 10:18 41.00562 39.75561 459 ft 139 kts 110°
2026-05-07 10:19 41.00203 39.76749 259 ft 139 kts 110°
2026-05-07 10:19 40.99832 39.77928 109 ft 138 kts 110°
2026-05-07 10:19 40.99514 39.78965 88 ft 102 kts 112°
2026-05-07 10:19 40.99358 39.79458 91 ft 19 kts 112°
2026-05-07 10:20 40.99309 39.79619 89 ft 19 kts 112°
2026-05-07 10:20 40.99256 39.79787 89 ft 20 kts 112°
2026-05-07 10:20 40.99201 39.79964 89 ft 21 kts 112°
2026-05-07 10:20 40.99142 39.80152 89 ft 21 kts 112°
2026-05-07 10:21 40.99087 39.80291 88 ft 15 kts 140°
2026-05-07 10:21 40.99044 39.80386 87 ft 14 kts 35°
2026-05-07 10:21 40.99096 39.80308 86 ft 13 kts 290°
2026-05-07 10:21 40.99130 39.80195 85 ft 14 kts 292°
2026-05-07 10:22 40.99168 39.80073 89 ft 15 kts 292°
2026-05-07 10:22 40.99206 39.79949 88 ft 15 kts 292°
2026-05-07 10:22 40.99247 39.79817 87 ft 16 kts 292°
2026-05-07 10:22 40.99292 39.79673 89 ft 17 kts 292°
2026-05-07 10:23 40.99338 39.79521 89 ft 19 kts 292°
2026-05-07 10:23 40.99386 39.79354 91 ft 20 kts 282°
2026-05-07 10:23 40.99352 39.79173 88 ft 21 kts 248°
2026-05-07 10:23 40.99360 39.78985 90 ft 22 kts 292°
2026-05-07 10:24 40.99415 39.78799 87 ft 19 kts 291°
2026-05-07 10:24 40.99440 39.78719 88 ft 9 kts 292°
2026-05-07 10:24 40.99455 39.78667 87 ft 0 kts 292°
2026-05-07 10:24 40.99460 39.78653 91 ft 3 kts 292°
2026-05-07 10:25 40.99468 39.78623 89 ft 4 kts 287°
2026-05-07 10:25 40.99460 39.78585 89 ft 5 kts 243°
2026-05-07 10:25 40.99460 39.78579 89 ft 1 kts 270°
2026-05-07 10:25 40.99469 39.78551 89 ft 4 kts 289°
2026-05-07 10:26 40.99456 39.78520 92 ft 4 kts 221°
2026-05-07 10:26 40.99430 39.78513 89 ft 2 kts 199°
2026-05-07 10:26 40.99426 39.78510 89 ft 1 kts 203°
2026-05-07 10:26 40.99425 39.78509 88 ft 0 kts 201°
2026-05-07 10:27 40.99425 39.78510 88 ft 0 kts 201°
2026-05-07 10:27 40.99429 39.78512 89 ft 0 kts 201°
2026-05-07 10:29 40.99416 39.78524 91 ft 0 kts 232°